Simultaneous Nadir Overpasses (SNOs) Predictions

Prediction of SNOs between LANDSAT-8 and METOP-B Satellite Orbit:

Table of predicted SNOs for the next 14.0 days since TLE Epoch: 8/11/2018
Index Date (LANDSAT-8) Time (LANDSAT-8) Lat,Lon (LANDSAT-8) SZA (LANDSAT-8 ) Date (METOP-B) Time (METOP-B) Lat,Lon (METOP-B) SZA (METOP-B ) Distance(km) Time Diff (sec)
1 08/12/2018 05:20:57 -81.23, -38.54 111.60 08/12/2018 05:20:01 -81.24, -38.37 111.60 3.12 56
2 08/12/2018 06:10:22 81.26, 129.61 68.49 08/12/2018 06:10:40 81.25, 129.68 68.50 1.36 18
3 08/15/2018 00:55:14 -81.22, 27.81 110.75 08/15/2018 00:54:21 -81.23, 27.88 110.76 1.37 53
4 08/15/2018 01:44:39 81.25,-164.07 69.34 08/15/2018 01:45:00 81.25,-164.12 69.34 0.98 21
5 08/17/2018 20:29:29 -81.24, 94.51 109.81 08/17/2018 20:28:39 -81.24, 94.49 109.83 0.49 50
6 08/17/2018 21:18:55 81.24, -97.77 70.22 08/17/2018 21:19:19 81.24, -97.94 70.21 2.93 24
7 08/20/2018 16:03:46 -81.23, 160.81 108.90 08/20/2018 16:02:59 -81.23, 160.70 108.93 1.83 47
8 08/20/2018 16:53:11 81.26, -31.12 71.18 08/20/2018 16:53:37 81.26, -31.01 71.21 1.95 26
9 08/23/2018 11:38:02 -81.24,-132.55 107.91 08/23/2018 11:37:18 -81.24,-132.72 107.95 3.08 44




NCC Satellite Simultaneous Nadir Overpasses (SNOs) Prediction Service
